We konden geen weer-waarchuwingen ophalen. Ga rechtstreeks naar de Meteoalarm site : www.meteoalarm.eu en controleer daar .



Onweer radar Meer informatie blitzortung!


Regen radar Meer informatie rain snow radar


Bezoek onze andere website:

Template documentation
and downloads

And another site



15 daagse weersverwachting Kristiansund (NO)

  • Overzicht
  • Per uur
  • 15 dagen
  • Extra
  • Vergelijk
  • Kaarten
  • Dagkaart
  • Meer »
  • Info
  • Statistieken
  • Directe link
    Temp 6h Neerslag Wind  
 05:36     21:32    Daglengte: 15:56 Vandaag
14:00
11°
 
4
20:00
12°
 
4
 05:39     21:28    Daglengte: 15:49 Morgen
02:00
11°
 
6
08:00
12°
 
2
14:00
16°
 
3
20:00
14°
 
3
 05:42     21:25    Daglengte: 15:43 Vrijdag 19 Aug
02:00
13°
 
3
08:00
14°
 
3
14:00
21°
 
2
20:00
16°
13.5 mm
3
 05:45     21:22    Daglengte: 15:37 Zaterdag 20 Aug
02:00
14°
36.9 mm
2
08:00
14°
24.1 mm
3
Locatie info
Region: Møre og Romsdal
Latitude: 63.1205°N
Longitude: 7.7141°E
1 masl
Postcode: 6509
Temp/Neerslag /Baro Onweer/Dauwpunt
    Temp Baro 1h Neerslag Dauwpunt Wind UV Bewolking  
 05:36     21:32    Daglengte: 15:56 Vandaag
13:00
11°
1016.2 hPa
48%
7.3°
4
Windvlaag: -5.5 m/s
76%
14:00
11°
1016.6 hPa
82%
7.1°
4
Windvlaag: -5.4 m/s
81%
15:00
12°
1016.7 hPa
78%
6.2°
4
Windvlaag: -4 m/s
81%
16:00
12°
1016.8 hPa
78%
6.5°
4
Windvlaag: -3.3 m/s
80%
17:00
12°
1016.9 hPa
25%
6.9°
4
Windvlaag: -2.8 m/s
66%
18:00
12°
1017.3 hPa
19%
6.8°
4
Windvlaag: -2 m/s
64%
19:00
12°
1017.4 hPa
17%
6.8°
4
Windvlaag: -2.2 m/s
60%
20:00
12°
1017.4 hPa
14%
6.7°
4
Windvlaag: -2.3 m/s
49%
21:00
12°
1017.3 hPa
14%
6.9°
5
Windvlaag: -2.6 m/s
39%
22:00
12°
1017.5 hPa
14%
7.1°
5
Windvlaag: -2.8 m/s
43%
23:00
12°
1017.3 hPa
14%
7.2°
5
Windvlaag: -2.9 m/s
48%
 05:39     21:28    Daglengte: 15:49 Morgen
00:00
12°
1017.1 hPa
14%
7.5°
6
Windvlaag: -2.8 m/s
50%
01:00
11°
1016.7 hPa
14%
7.4°
6
Windvlaag: -2.5 m/s
14%
02:00
11°
1016.3 hPa
14%
7.4°
6
Windvlaag: -2 m/s
35%
03:00
11°
1015.8 hPa
14%
7.5°
5
Windvlaag: -1.3 m/s
6%
04:00
11°
1015.0 hPa
14%
7.8°
4
Windvlaag: -0.8 m/s
3%
05:00
11°
1014.4 hPa
14%
8.2°
3
Windvlaag: -0.3 m/s
10%
06:00
11°
1013.9 hPa
14%
8.8°
3
Windvlaag: -0.6 m/s
3%
07:00
12°
1013.6 hPa
14%
9.6°
2
Windvlaag: 0.4 m/s
7%
08:00
12°
1013.3 hPa
14%
9.9°
2
Windvlaag: 1 m/s
5%
09:00
13°
1013.1 hPa
14%
9.6°
2
Windvlaag: 1.9 m/s
9%
10:00
14°
1012.7 hPa
14%
8.0°
2
Windvlaag: 1.9 m/s
39%
11:00
15°
1012.3 hPa
14%
7.3°
2
Windvlaag: 2 m/s
43%
12:00
15°
1012.1 hPa
14%
7.5°
2
Windvlaag: 1.8 m/s
50%
13:00
16°
1011.7 hPa
14%
8.6°
2
Windvlaag: -0.4 m/s
49%
14:00
16°
1011.5 hPa
14%
9.4°
3
Windvlaag: -0.4 m/s
57%
15:00
15°
1011.3 hPa
14%
9.9°
4
Windvlaag: 0 m/s
57%
16:00
15°
1011.4 hPa
14%
10.2°
5
Windvlaag: 0.3 m/s
64%
17:00
15°
1011.3 hPa
14%
9.6°
4
Windvlaag: 0.3 m/s
66%
18:00
14°
1011.3 hPa
15%
9.8°
4
Windvlaag: -0.1 m/s
49%
19:00
14°
1011.1 hPa
15%
9.6°
4
Windvlaag: 0.4 m/s
67%
20:00
14°
1011.3 hPa
19%
9.5°
3
Windvlaag: 0.3 m/s
84%
21:00
13°
1011.4 hPa
61%
9.6°
2
Windvlaag: -0.5 m/s
86%
22:00
13°
1011.5 hPa
57%
9.8°
1
Windvlaag: -0.9 m/s
71%
23:00
13°
1011.5 hPa
62%
9.9°
2
Windvlaag: -0.3 m/s
76%
 05:42     21:25    Daglengte: 15:43 Vrijdag 19 Aug
00:00
13°
1011.3 hPa
65%
10.3°
2
Windvlaag: -0.3 m/s
73%
01:00
13°
1011.0 hPa
68%
10.6°
2
Windvlaag: -0.7 m/s
66%
02:00
13°
1010.6 hPa
28%
11.1°
3
Windvlaag: -1.1 m/s
79%
03:00
13°
1010.2 hPa
15%
10.8°
3
Windvlaag: 0.1 m/s
72%
04:00
13°
1009.7 hPa
14%
11.1°
3
Windvlaag: 0.9 m/s
75%
05:00
13°
1008.7 hPa
23%
10.7°
3
Windvlaag: 1.7 m/s
99%
06:00
13°
1008.3 hPa
30%
10.1°
3
Windvlaag: 1.8 m/s
78%
07:00
14°
1008.2 hPa
23%
10.4°
3
Windvlaag: 1.7 m/s
80%
08:00
14°
1008.0 hPa
21%
10.1°
3
Windvlaag: 1 m/s
78%
09:00
15°
1007.5 hPa
21%
10.7°
3
Windvlaag: 0.9 m/s
69%
10:00
16°
1007.2 hPa
21%
11.1°
2
Windvlaag: 2.1 m/s
73%
11:00
18°
1007.0 hPa
21%
11.9°
2
Windvlaag: 2.4 m/s
29%
12:00
19°
1006.8 hPa
21%
12.9°
2
Windvlaag: 2.7 m/s
28%
13:00
20°
1006.3 hPa
21%
13.3°
2
Windvlaag: 2.1 m/s
17%
14:00
21°
1006.4 hPa
21%
14.3°
2
Windvlaag: 2.1 m/s
38%
15:00
19°
1006.9 hPa
65%
12.7°
4
Windvlaag: -0.8 m/s
68%
16:00
18°
1008.0 hPa
26%
12.0°
8
Windvlaag: 2.1 m/s
54%
17:00
16°
1008.7 hPa
44%
10.6°
6
Windvlaag: 2.7 m/s
76%
18:00
16°
1009.0 hPa 5.1 mm
100%
10.8°
5
Windvlaag: 2.3 m/s
79%
19:00
16°
1009.1 hPa 5.1 mm
100%
11.1°
3
Windvlaag: 1.8 m/s
74%
20:00
16°
1009.4 hPa 3.3 mm
100%
12.4°
3
Windvlaag: 2.3 m/s
75%
21:00
15°
1009.7 hPa 5.2 mm
98%
13.0°
2
Windvlaag: 1.7 m/s
78%
22:00
14°
1009.7 hPa 5.2 mm
100%
12.9°
2
Windvlaag: 2 m/s
97%
23:00
14°
1009.7 hPa 5.2 mm
100%
12.8°
2
Windvlaag: 2.4 m/s
97%
 05:45     21:22    Daglengte: 15:37 Zaterdag 20 Aug
00:00
14°
1010.6 hPa 5.8 mm
100%
12.9°
2
Windvlaag: 8.5 m/s
94%
01:00
14°
1010.6 hPa 7.4 mm
100%
12.8°
2
Windvlaag: 7.1 m/s
100%
02:00
14°
1010.3 hPa 8.0 mm
99%
12.7°
2
Windvlaag: 6.3 m/s
100%
03:00
14°
1009.9 hPa
87%
12.4°
1
Windvlaag: 6.8 m/s
100%
04:00
14°
1009.6 hPa
81%
12.4°
1
Windvlaag: 6.4 m/s
95%
05:00
13°
1009.3 hPa 8.0 mm
91%
12.2°
2
Windvlaag: 6.3 m/s
94%
06:00
13°
1009.0 hPa 8.0 mm
86%
11.8°
3
Windvlaag: 6.6 m/s
89%
07:00
13°
1008.7 hPa
78%
11.2°
3
Windvlaag: 5.8 m/s
85%
08:00
14°
1008.8 hPa 8.0 mm
80%
10.4°
3
Windvlaag: 4.9 m/s
84%
09:00
14°
1008.8 hPa
83%
9.5°
3
Windvlaag: 2.4 m/s
86%
10:00
14°
1008.5 hPa 8.0 mm
86%
9.1°
2
Windvlaag: 1.3 m/s
90%
11:00
14°
1008.2 hPa
27%
9.2°
2
Windvlaag: 1.6 m/s
88%
12:00
15°
1007.9 hPa
27%
9.4°
2
Windvlaag: 2.2 m/s
93%
Temp/Neerslag /Baro Onweer/Dauwpunt
    Temp Baro Neerslag Dauwpunt Wind Bewolking  
 05:36     21:32    Daglengte: 15:56 Vandaag
14:00
11°
1016.6 hPa   7.1°
4
81%
17:00
12°
1016.9 hPa   6.9°
4
66%
20:00
12°
1017.4 hPa   6.7°
4
49%
23:00
12°
1017.3 hPa   7.2°
5
48%
 05:39     21:28    Daglengte: 15:49 Morgen
02:00
11°
1016.3 hPa   7.4°
6
35%
05:00
11°
1014.4 hPa   8.2°
3
10%
08:00
12°
1013.3 hPa   9.9°
2
5%
11:00
15°
1012.3 hPa   7.3°
2
43%
14:00
16°
1011.5 hPa   9.4°
3
57%
17:00
15°
1011.3 hPa   9.6°
4
66%
20:00
14°
1011.3 hPa   9.5°
3
84%
23:00
13°
1011.5 hPa   9.9°
2
76%
 05:42     21:25    Daglengte: 15:43 Vrijdag 19 Aug
02:00
13°
1010.6 hPa   11.1°
3
79%
05:00
13°
1008.7 hPa   10.7°
3
99%
08:00
14°
1008.0 hPa   10.1°
3
78%
11:00
18°
1007.0 hPa   11.9°
2
29%
14:00
21°
1006.4 hPa   14.3°
2
38%
17:00
16°
1008.7 hPa   10.6°
6
76%
20:00
16°
1009.4 hPa 13.5 mm 12.4°
3
75%
23:00
14°
1009.7 hPa 15.6 mm 12.8°
2
97%
 05:45     21:22    Daglengte: 15:37 Zaterdag 20 Aug
02:00
14°
1010.3 hPa 21.3 mm 12.7°
2
100%
05:00
13°
1009.3 hPa 8.0 mm 12.2°
2
94%
08:00
14°
1008.8 hPa 16.0 mm 10.4°
3
84%
11:00
14°
1008.2 hPa 8.0 mm 9.2°
2
88%
14:00
15°
1008.0 hPa   9.3°
2
95%
17:00
14°
1010.3 hPa 24.5 mm 11.2°
2
1%
20:00
14°
1008.8 hPa 24.5 mm 11.0°
3
1%
23:00
14°
1006.8 hPa 24.5 mm 11.1°
3
1%
 05:48     21:18    Daglengte: 15:30 Zondag 21 Aug
02:00
14°
1004.2 hPa 24.5 mm 11.3°
3
1%
05:00
14°
1004.5 hPa 24.5 mm 11.5°
6
1%
08:00
13°
1005.3 hPa 25.6 mm 11.0°
4
1%
11:00
13°
1006.1 hPa 28.7 mm 11.2°
4
1%
14:00
14°
1006.8 hPa 29.0 mm 10.5°
3
1%
17:00
14°
1006.6 hPa 29.0 mm 9.9°
1
1%
20:00
14°
1006.3 hPa 29.1 mm 9.6°
3
1%
23:00
13°
1005.8 hPa 29.9 mm 10.4°
2
1%
 05:50     21:15    Daglengte: 15:25 Maandag 22 Aug
02:00
12°
1005.7 hPa 33.0 mm 9.7°
3
1%
05:00
12°
1005.6 hPa 33.0 mm 9.5°
1
1%
08:00
13°
1005.9 hPa 33.2 mm 9.6°
1
1%
11:00
14°
1006.9 hPa 34.5 mm 9.0°
3
1%
14:00
14°
1008.3 hPa 35.5 mm 8.7°
1
1%
17:00
14°
1009.8 hPa 37.3 mm 8.6°
10
1%
20:00
13°
1012.2 hPa 37.9 mm 9.2°
10
1%
23:00
13°
1014.5 hPa 38.4 mm 8.9°
8
0%
 05:53     21:12    Daglengte: 15:19 Dinsdag 23 Aug
02:00
13°
1016.8 hPa 38.8 mm 8.1°
7
1%
05:00
13°
1018.3 hPa 38.9 mm 8.0°
5
1%
08:00
13°
1020.0 hPa 39.0 mm 7.4°
2
1%
11:00
14°
1020.7 hPa 39.0 mm 6.6°
2
0%
14:00
14°
1020.9 hPa 39.0 mm 7.7°
3
1%
17:00
15°
1020.7 hPa 39.0 mm 9.1°
4
1%
20:00
15°
1020.4 hPa 39.0 mm 10.8°
4
1%
23:00
14°
1020.4 hPa 39.0 mm 10.0°
3
1%
 05:56     21:08    Daglengte: 15:12 Woensdag 24 Aug
02:00
15°
1019.9 hPa 39.0 mm 10.0°
4
1%
05:00
15°
1018.7 hPa 39.0 mm 8.0°
5
1%
08:00
15°
1018.0 hPa 39.0 mm 8.0°
5
1%
11:00
17°
1017.1 hPa   8.4°
5
1%
14:00
17°
1016.4 hPa 78.1 mm 9.9°
3
1%
20:00
16°
1016.2 hPa 78.2 mm 12.0°
3
1%
 05:59     21:05    Daglengte: 15:06 Donderdag 25 Aug
02:00
17°
1015.1 hPa 78.5 mm 10.9°
5
1%
08:00
16°
1016.5 hPa 78.6 mm 10.6°
2
1%
14:00
17°
1017.2 hPa 78.6 mm 11.9°
3
1%
20:00
16°
1019.4 hPa 78.8 mm 12.6°
3
1%
 06:02     21:01    Daglengte: 14:59 Vrijdag 26 Aug
02:00
15°
1021.0 hPa 79.9 mm 13.2°
1
1%
08:00
15°
1023.1 hPa 80.1 mm 13.5°
1
1%
14:00
16°
1023.5 hPa 80.1 mm 13.7°
4
1%
20:00
15°
1023.1 hPa 80.1 mm 13.5°
3
1%
 06:04     20:58    Daglengte: 14:54 Zaterdag 27 Aug
02:00
15°
1023.6 hPa 80.1 mm 13.4°
2
1%
08:00
14°
1022.2 hPa 0.4 mm 11.6°
1
74%
14:00
16°
1022.5 hPa 0.6 mm 11.7°
2
66%
20:00
14°
1023.0 hPa 0.3 mm 11.8°
1
56%
 06:07     20:55    Daglengte: 14:48 Zondag 28 Aug
02:00
13°
1024.0 hPa 0.4 mm 11.2°
1
56%
08:00
14°
1023.9 hPa 0.4 mm 11.2°
0
63%
14:00
16°
1024.0 hPa 0.5 mm 11.1°
2
55%
20:00
14°
1023.6 hPa 0.5 mm 11.6°
1
54%
 06:10     20:51    Daglengte: 14:41 Maandag 29 Aug
02:00
13°
1023.5 hPa 0.4 mm 11.2°
1
60%
08:00
14°
1022.9 hPa 0.7 mm 11.2°
1
65%
14:00
16°
1022.7 hPa 0.5 mm 11.2°
2
57%
20:00
14°
1022.6 hPa 0.5 mm 11.6°
1
60%
 06:13     20:48    Daglengte: 14:35 Dinsdag 30 Aug
02:00
13°
1023.0 hPa 0.6 mm 11.0°
1
65%
08:00
13°
1022.2 hPa 0.4 mm 11.0°
0
60%
14:00
16°
1021.2 hPa 0.4 mm 10.9°
2
57%
20:00
14°
1019.9 hPa 0.2 mm 11.3°
1
58%
 06:16     20:45    Daglengte: 14:29 Woensdag 31 Aug
02:00
13°
1018.8 hPa 0.1 mm 10.7°
1
63%
08:00
14°
1017.3 hPa 0.4 mm 10.8°
1
73%
14:00
16°
1016.4 hPa 0.3 mm 10.8°
1
76%
20:00
14°
1015.8 hPa 0.9 mm 11.3°
1
74%
 06:18     20:41    Daglengte: 14:23 Donderdag 01 Sep
02:00
13°
1015.3 hPa 0.6 mm 10.4°
1
75%
08:00
13°
1014.2 hPa 1.4 mm 10.5°
1
66%
  CAPE Lifted Index Hail Supercell Tornado SRH 3km CL BTM PRES CL TOP PRES Swiss DWD icon SMHI TS
 05:36     21:32    Daglengte: 15:56 Vandaag
13:00 28 J/kg 9.9 K 0 % 0 % 0 % 0 m²/s² 0 0 10.11 61
14:00 29 J/kg 9.6 K 0 % 0 % 0 % 0 m²/s² 0 0 9.84 3
15:00 27 J/kg 9.3 K 0 % 0 % 0 % 0 m²/s² 0 0 9.81 61
16:00 14 J/kg 9.4 K 0 % 0 % 0 % 0 m²/s² 0 0 10.93 3
17:00 13 J/kg 9.2 K 0 % 0 % 0 % 0 m²/s² 0 0 13.64 3
18:00 14 J/kg 9.1 K 0 % 0 % 0 % 0 m²/s² 0 0 17.08 3
19:00 7 J/kg 9.8 K 0 % 0 % 0 % 0 m²/s² 0 0 17.51 3
20:00 0 J/kg 10.8 K 0 % 0 % 0 % 0 m²/s² 0 0 18.84 3
21:00 0 J/kg 11.8 K 0 % 0 % 0 % 0 m²/s² 0 0 20.2 3
22:00 0 J/kg 12.2 K 0 % 0 % 0 % 0 m²/s² 0 0 20.63 3
23:00 0 J/kg 12.6 K 0 % 0 % 0 % 0 m²/s² 0 0 21.06 3
 05:39     21:28    Daglengte: 15:49 Morgen
00:00 0 J/kg 12.9 K 0 % 0 % 0 % 0 m²/s² 0 0 21.06 2
01:00 0 J/kg 13.1 K 0 % 0 % 0 % 0 m²/s² 0 0 21.26 2
02:00 0 J/kg 12.8 K 0 % 0 % 0 % 0 m²/s² 0 0 20.69 2
03:00 0 J/kg 12.7 K 0 % 0 % 0 % 0 m²/s² 0 0 20.59 1
04:00 0 J/kg 12.3 K 0 % 0 % 0 % 0 m²/s² 0 0 20.22 0
05:00 0 J/kg 11.9 K 0 % 0 % 0 % 0 m²/s² 0 0 20.15 2
06:00 0 J/kg 11.1 K 0 % 0 % 0 % 0 m²/s² 0 0 19.35 1
07:00 0 J/kg 10.7 K 0 % 0 % 0 % 0 m²/s² 0 0 19.28 2
08:00 0 J/kg 10.5 K 0 % 0 % 0 % 0 m²/s² 0 0 19.47 1
09:00 0 J/kg 10.2 K 0 % 0 % 0 % 0 m²/s² 0 0 19.59 0
10:00 0 J/kg 9.5 K 0 % 0 % 0 % 0 m²/s² 0 0 18.89 3
11:00 0 J/kg 8.4 K 0 % 0 % 0 % 0 m²/s² 0 0 18.27 3
12:00 0 J/kg 7.6 K 0 % 0 % 0 % 0 m²/s² 0 0 17.95 3
13:00 0 J/kg 6.5 K 0 % 0 % 0 % 0 m²/s² 0 0 17.39 3
14:00 0 J/kg 5.3 K 0 % 0 % 0 % 0 m²/s² 0 0 15.65 3
15:00 0 J/kg 4.6 K 0 % 0 % 0 % 0 m²/s² 0 0 14.44 3
16:00 1 J/kg 4.6 K 0 % 0 % 0 % 0 m²/s² 0 0 13.6 3
17:00 1 J/kg 4.5 K 0 % 0 % 0 % 0 m²/s² 0 0 13.89 3
18:00 0 J/kg 4.5 K 0 % 0 % 0 % 0 m²/s² 0 0 13.89 3
19:00 0 J/kg 3.9 K 0 % 0 % 0 % 0 m²/s² 0 0 11.34 3
20:00 0 J/kg 3.7 K 0 % 0 % 0 % 0 m²/s² 0 0 7.87 3
21:00 0 J/kg 3.7 K 0 % 0 % 0 % 0 m²/s² 0 0 6.82 3
22:00 0 J/kg 3.2 K 0 % 0 % 0 % 0 m²/s² 0 0 6.59 3
23:00 0 J/kg 3.1 K 0 % 0 % 0 % 0 m²/s² 0 0 6.58 3
 05:42     21:25    Daglengte: 15:43 Vrijdag 19 Aug
00:00 0 J/kg 3.4 K 0 % 0 % 0 % 0 m²/s² 0 0 7.57 3
01:00 0 J/kg 3.9 K 0 % 0 % 0 % 0 m²/s² 0 0 9.9 3
02:00 0 J/kg 4.0 K 0 % 0 % 0 % 0 m²/s² 0 0 9.67 3
03:00 0 J/kg 3.7 K 0 % 0 % 0 % 0 m²/s² 0 0 9.07 3
04:00 0 J/kg 4.4 K 0 % 0 % 0 % 0 m²/s² 0 0 9.65 3
05:00 0 J/kg 5.6 K 0 % 0 % 0 % 0 m²/s² 0 0 9.86 3
06:00 0 J/kg 6.6 K 0 % 0 % 0 % 0 m²/s² 0 0 8.61 3
07:00 0 J/kg 6.5 K 0 % 0 % 0 % 0 m²/s² 0 0 7.58 3
08:00 0 J/kg 5.7 K 0 % 0 % 0 % 0 m²/s² 0 0 6.18 2
09:00 0 J/kg 4.8 K 0 % 0 % 0 % 0 m²/s² 0 0 5.28 2
10:00 0 J/kg 5.0 K 0 % 0 % 0 % 0 m²/s² 0 0 5.33 1
11:00 0 J/kg 5.6 K 0 % 0 % 0 % 0 m²/s² 0 0 6.41 1
12:00 0 J/kg 5.2 K 0 % 0 % 0 % 0 m²/s² 0 0 6.49 1
13:00 0 J/kg 4.7 K 0 % 0 % 0 % 0 m²/s² 0 0 5.96 2
14:00 0 J/kg 4.3 K 0 % 0 % 0 % 0 m²/s² 0 0 5.38 2
15:00 1 J/kg 3.3 K 0 % 0 % 0 % 0 m²/s² 0 0 4.29 3
16:00 0 J/kg 2.0 K 0 % 0 % 0 % 0 m²/s² 0 0 2.84 3
17:00 51 J/kg 0.6 K 0 % 0 % 0 % 0 m²/s² 0 0 1.44 3
18:00 78 J/kg 0.3 K 0 % 0 % 0 % 0 m²/s² 0 0 1.38 3
19:00 75 J/kg 0.3 K 0 % 0 % 0 % 0 m²/s² 0 0 1.65 80
20:00 0 J/kg 0.8 K 0 % 0 % 0 % 0 m²/s² 0 0 2.99 80
21:00 0 J/kg 2.1 K 0 % 0 % 0 % 0 m²/s² 0 0 4.5 80
22:00 0 J/kg 2.3 K 0 % 0 % 0 % 0 m²/s² 0 0 4.37 80
23:00 0 J/kg 2.2 K 0 % 0 % 0 % 0 m²/s² 0 0 2.86 80
 05:45     21:22    Daglengte: 15:37 Zaterdag 20 Aug
00:00 12 J/kg 3.5 K 0 % 0 % 0 % 0 m²/s² 0 0 3.5 80
01:00 14 J/kg 4.0 K 0 % 0 % 0 % 0 m²/s² 0 0 4.03 3
02:00 10 J/kg 3.8 K 0 % 0 % 0 % 0 m²/s² 0 0 3.89 3
03:00 10 J/kg 5.5 K 0 % 0 % 0 % 0 m²/s² 0 0 6.94 3
04:00 11 J/kg 6.8 K 0 % 0 % 0 % 0 m²/s² 0 0 8.93 3
05:00 2 J/kg 7.4 K 0 % 0 % 0 % 0 m²/s² 0 0 10.73 3
06:00 0 J/kg 8.7 K 0 % 0 % 0 % 0 m²/s² 0 0 13.26 80
07:00 0 J/kg 9.1 K 0 % 0 % 0 % 0 m²/s² 0 0 15.04 3
08:00 0 J/kg 8.8 K 0 % 0 % 0 % 0 m²/s² 0 0 15.25 3
09:00 0 J/kg 8.1 K 0 % 0 % 0 % 0 m²/s² 0 0 14.97 3
10:00 2 J/kg 7.8 K 0 % 0 % 0 % 0 m²/s² 0 0 14.64 3
11:00 2 J/kg 7.6 K 0 % 0 % 0 % 0 m²/s² 0 0 14.44 3
12:00 7 J/kg 7.4 K 0 % 0 % 0 % 0 m²/s² 0 0 14.24 3
Temp Baro Wind Neerslag
  EWN Forecast EWN WRFDA DWD ICON FMI HIRLAM MET Norway GFS
 05:36     21:32    Daglengte: 15:56 Vandaag
14:00 11.3° 1016.6 hPa 3.5 m/s 0.0 mm 11.6° 1014.8 hPa 4.2 m/s 29.5 mm 11.3° 1017.1 hPa 3.1 m/s -0.4 mm 11.3° 1016.7 hPa 3.2 m/s 0.0 mm 11.2° 1016.2 hPa 4.3 m/s
17:00 11.8° 1016.9 hPa 3.6 m/s 0.0 mm 11.9° 1015.8 hPa 4.9 m/s 44.7 mm 12.0° 1016.9 hPa 3.1 m/s 0.1 mm 11.8° 1017.3 hPa 4.1 m/s 0.0 mm 11.6° 1017.4 hPa 4.7 m/s
20:00 11.7° 1017.4 hPa 4.1 m/s 0.0 mm 11.5° 1016.1 hPa 3.6 m/s 44.8 mm 11.9° 1017.6 hPa 4.0 m/s 0.0 mm 11.7° 1017.6 hPa 4.6 m/s 0.0 mm 11.4° 1017.2 hPa 5.0 m/s
23:00 11.7° 1017.3 hPa 5.1 m/s 0.0 mm 8.8° 1016.4 hPa 4.2 m/s 44.8 mm 11.8° 1017.4 hPa 4.5 m/s 0.0 mm 12.1° 1017.4 hPa 5.2 m/s 0.0 mm 11.5° 1017.3 hPa 4.5 m/s
 05:39     21:28    Daglengte: 15:49 Morgen
02:00 11.3° 1016.3 hPa 5.8 m/s 0.0 mm 7.9° 1015.6 hPa 5.1 m/s 44.8 mm 11.5° 1016.6 hPa 4.3 m/s 0.0 mm 11.6° 1016.5 hPa 6.5 m/s 0.0 mm 11.2° 1016.4 hPa 4.9 m/s
05:00 11.0° 1014.4 hPa 3.4 m/s 0.0 mm 7.6° 1013.1 hPa 4.8 m/s 44.8 mm 11.1° 1014.5 hPa 2.7 m/s 0.0 mm 11.2° 1015.1 hPa 3.1 m/s 0.0 mm 11.0° 1014.0 hPa 4.2 m/s
08:00 12.2° 1013.3 hPa 2.2 m/s 0.0 mm 11.9° 1012.1 hPa 2.0 m/s 44.8 mm 11.8° 1013.5 hPa 2.2 m/s 0.0 mm 13.0° 1014.3 hPa 2.4 m/s 0.0 mm 11.7° 1013.4 hPa 2.7 m/s
11:00 14.7° 1012.3 hPa 2.0 m/s 0.0 mm 17.4° 1010.6 hPa 1.9 m/s 44.8 mm 13.8° 1012.4 hPa 1.6 m/s 0.0 mm 15.9° 1014.0 hPa 3.3 m/s 0.0 mm 13.3° 1012.5 hPa 1.7 m/s
14:00 15.5° 1011.5 hPa 3.1 m/s 0.0 mm 19.7° 1008.8 hPa 2.3 m/s 44.8 mm 16.1° 1011.6 hPa 1.5 m/s 0.0 mm 15.0° 1013.3 hPa 4.1 m/s 0.0 mm 14.1° 1011.9 hPa 1.8 m/s
17:00 14.9° 1011.3 hPa 4.2 m/s 0.0 mm 18.9° 1008.2 hPa 3.6 m/s 44.8 mm 14.6° 1011.3 hPa 3.5 m/s 0.0 mm 14.7° 1013.1 hPa 4.8 m/s 0.0 mm 14.0° 1011.5 hPa 3.2 m/s
20:00 13.6° 1011.3 hPa 3.3 m/s 0.0 mm 14.7° 1008.8 hPa 3.7 m/s 44.8 mm 13.8° 1011.4 hPa 3.3 m/s 0.0 mm 13.3° 1013.0 hPa 2.5 m/s 0.0 mm 13.9° 1011.5 hPa 2.6 m/s
23:00 12.9° 1011.5 hPa 1.5 m/s 0.0 mm 13.1° 1009.6 hPa 2.2 m/s 44.8 mm 13.2° 1011.7 hPa 2.5 m/s 0.1 mm 12.6° 1013.1 hPa 1.1 m/s 0.0 mm 13.5° 1012.0 hPa 1.8 m/s
 05:42     21:25    Daglengte: 15:43 Vrijdag 19 Aug
02:00 13.3° 1010.6 hPa 2.8 m/s 0.0 mm 12.5° 1008.8 hPa 1.9 m/s 44.8 mm 13.4° 1010.6 hPa 2.5 m/s 0.1 mm 13.2° 1012.7 hPa 3.4 m/s 0.0 mm 13.2° 1011.1 hPa 1.8 m/s
05:00 13.4° 1008.7 hPa 2.9 m/s 0.0 mm 12.5° 1008.7 hPa 2.6 m/s 44.8 mm 13.5° 1009.2 hPa 2.7 m/s 0.0 mm 13.3° 1010.3 hPa 2.1 m/s
08:00 14.4° 1008.0 hPa 2.6 m/s 0.0 mm 15.2° 1008.5 hPa 0.9 m/s 44.8 mm 14.3° 1008.3 hPa 2.8 m/s 0.0 mm 14.0° 1010.3 hPa 2.3 m/s
11:00 17.6° 1007.0 hPa 2.4 m/s 0.0 mm 17.7° 1007.5 hPa 1.7 m/s 44.8 mm 17.7° 1007.2 hPa 2.3 m/s 0.0 mm 15.3° 1009.1 hPa 2.6 m/s
14:00 21.0° 1006.4 hPa 1.9 m/s 0.0 mm 19.1° 1005.9 hPa 3.9 m/s 44.8 mm 21.3° 1006.9 hPa 1.6 m/s 0.0 mm 16.9° 1008.1 hPa 2.5 m/s
17:00 16.2° 1008.7 hPa 5.8 m/s 0.0 mm 20.1° 1005.0 hPa 4.0 m/s 44.8 mm 15.3° 1009.1 hPa 5.7 m/s 0.0 mm 17.0° 1008.3 hPa 1.9 m/s
20:00 15.6° 1009.4 hPa 2.8 m/s 13.5 mm 16.9° 1005.1 hPa 6.3 m/s 44.8 mm 15.3° 1010.1 hPa 1.7 m/s 0.6 mm 15.0° 1009.6 hPa 4.3 m/s
23:00 14.4° 1009.7 hPa 1.5 m/s 15.6 mm 14.8° 1006.9 hPa 3.9 m/s 44.8 mm 13.9° 1011.4 hPa 0.5 m/s 1.0 mm 14.4° 1009.8 hPa 1.5 m/s
 05:45     21:22    Daglengte: 15:37 Zaterdag 20 Aug
02:00 13.6° 1010.3 hPa 1.5 m/s 21.3 mm 12.8° 1008.5 hPa 2.9 m/s 62.8 mm 13.8° 1010.8 hPa 1.2 m/s 0.5 mm 14.4° 1010.0 hPa 2.4 m/s
05:00 13.4° 1009.3 hPa 2.3 m/s 8.0 mm 11.4° 1009.0 hPa 3.5 m/s 71.2 mm 13.9° 1009.4 hPa 2.0 m/s 0.3 mm 13.3° 1010.5 hPa 4.0 m/s
08:00 13.5° 1008.8 hPa 2.9 m/s 16.0 mm 12.7° 1009.6 hPa 2.7 m/s 71.2 mm 13.8° 1008.7 hPa 2.9 m/s 0.3 mm 12.7° 1011.2 hPa 0.4 m/s
11:00 14.3° 1008.2 hPa 1.7 m/s 8.0 mm 14.7° 1009.4 hPa 1.2 m/s 71.2 mm 14.2° 1008.0 hPa 1.9 m/s 0.2 mm 13.0° 1011.3 hPa 1.3 m/s
14:00 15.1° 1008.0 hPa 2.4 m/s 0.0 mm 15.8° 1009.2 hPa 3.1 m/s 71.2 mm 15.0° 1007.6 hPa 2.2 m/s 0.0 mm 13.3° 1011.0 hPa 3.3 m/s
17:00 13.7° 1010.3 hPa 2.1 m/s 24.5 mm 13.7° 1010.3 hPa 2.1 m/s 24.5 mm
20:00 14.2° 1008.8 hPa 2.9 m/s 24.5 mm 14.2° 1008.8 hPa 2.9 m/s 24.5 mm
23:00 13.7° 1006.8 hPa 2.9 m/s 24.5 mm 13.7° 1006.8 hPa 2.9 m/s 24.5 mm
 05:48     21:18    Daglengte: 15:30 Zondag 21 Aug
02:00 13.6° 1004.2 hPa 2.9 m/s 24.5 mm 13.6° 1004.2 hPa 2.9 m/s 24.5 mm
05:00 13.6° 1004.5 hPa 6.5 m/s 24.5 mm 13.6° 1004.5 hPa 6.5 m/s 24.5 mm
08:00 13.0° 1005.3 hPa 4.3 m/s 25.6 mm 13.0° 1005.3 hPa 4.3 m/s 25.6 mm
11:00 13.2° 1006.1 hPa 3.9 m/s 28.7 mm 13.2° 1006.1 hPa 3.9 m/s 28.7 mm
14:00 14.1° 1006.8 hPa 2.6 m/s 29.0 mm 14.1° 1006.8 hPa 2.6 m/s 29.0 mm
17:00 14.2° 1006.6 hPa 1.0 m/s 29.0 mm 14.2° 1006.6 hPa 1.0 m/s 29.0 mm
20:00 14.1° 1006.3 hPa 2.7 m/s 29.1 mm 14.1° 1006.3 hPa 2.7 m/s 29.1 mm
23:00 13.1° 1005.8 hPa 2.5 m/s 29.9 mm 13.1° 1005.8 hPa 2.5 m/s 29.9 mm
 05:50     21:15    Daglengte: 15:25 Maandag 22 Aug
02:00 12.4° 1005.7 hPa 3.3 m/s 33.0 mm 12.4° 1005.7 hPa 3.3 m/s 33.0 mm
05:00 12.5° 1005.6 hPa 1.5 m/s 33.0 mm 12.5° 1005.6 hPa 1.5 m/s 33.0 mm
08:00 12.9° 1005.9 hPa 1.4 m/s 33.2 mm 12.9° 1005.9 hPa 1.4 m/s 33.2 mm
11:00 13.5° 1006.9 hPa 3.0 m/s 34.5 mm 13.5° 1006.9 hPa 3.0 m/s 34.5 mm
14:00 13.8° 1008.3 hPa 1.4 m/s 35.5 mm 13.8° 1008.3 hPa 1.4 m/s 35.5 mm
17:00 13.9° 1009.8 hPa 10.5 m/s 37.3 mm 13.9° 1009.8 hPa 10.5 m/s 37.3 mm
20:00 12.9° 1012.2 hPa 9.6 m/s 37.9 mm 12.9° 1012.2 hPa 9.6 m/s 37.9 mm
23:00 12.6° 1014.5 hPa 8.4 m/s 38.4 mm 12.6° 1014.5 hPa 8.4 m/s 38.4 mm
 05:53     21:12    Daglengte: 15:19 Dinsdag 23 Aug
02:00 12.6° 1016.8 hPa 7.4 m/s 38.8 mm 12.6° 1016.8 hPa 7.4 m/s 38.8 mm
05:00 12.6° 1018.3 hPa 5.0 m/s 38.9 mm 12.6° 1018.3 hPa 5.0 m/s 38.9 mm
08:00 12.9° 1020.0 hPa 2.3 m/s 39.0 mm 12.9° 1020.0 hPa 2.3 m/s 39.0 mm
11:00 13.6° 1020.7 hPa 1.9 m/s 39.0 mm 13.6° 1020.7 hPa 1.9 m/s 39.0 mm
14:00 14.3° 1020.9 hPa 3.2 m/s 39.0 mm 14.3° 1020.9 hPa 3.2 m/s 39.0 mm
17:00 14.9° 1020.7 hPa 4.1 m/s 39.0 mm 14.9° 1020.7 hPa 4.1 m/s 39.0 mm
20:00 14.7° 1020.4 hPa 4.2 m/s 39.0 mm 14.7° 1020.4 hPa 4.2 m/s 39.0 mm
23:00 14.2° 1020.4 hPa 2.8 m/s 39.0 mm 14.2° 1020.4 hPa 2.8 m/s 39.0 mm
 05:56     21:08    Daglengte: 15:12 Woensdag 24 Aug
02:00 14.6° 1019.9 hPa 3.5 m/s 39.0 mm 14.6° 1019.9 hPa 3.5 m/s 39.0 mm
05:00 14.6° 1018.7 hPa 4.8 m/s 39.0 mm 14.6° 1018.7 hPa 4.8 m/s 39.0 mm
08:00 14.9° 1018.0 hPa 5.4 m/s 39.0 mm 14.9° 1018.0 hPa 5.4 m/s 39.0 mm
11:00 17.0° 1017.1 hPa 5.2 m/s 39.0 mm 17.0° 1017.1 hPa 5.2 m/s 39.0 mm
14:00 17.4° 1016.4 hPa 3.1 m/s 39.0 mm 17.4° 1016.4 hPa 3.1 m/s 39.0 mm
20:00 16.4° 1016.2 hPa 2.6 m/s 39.1 mm 16.4° 1016.2 hPa 2.6 m/s 39.1 mm
 05:59     21:05    Daglengte: 15:06 Donderdag 25 Aug
02:00 16.5° 1015.1 hPa 4.7 m/s 39.3 mm 16.5° 1015.1 hPa 4.7 m/s 39.3 mm
08:00 16.0° 1016.5 hPa 1.8 m/s 39.3 mm 16.0° 1016.5 hPa 1.8 m/s 39.3 mm
14:00 16.6° 1017.2 hPa 2.7 m/s 39.3 mm 16.6° 1017.2 hPa 2.7 m/s 39.3 mm
20:00 15.8° 1019.4 hPa 2.5 m/s 39.5 mm 15.8° 1019.4 hPa 2.5 m/s 39.5 mm
 06:02     21:01    Daglengte: 14:59 Vrijdag 26 Aug
02:00 15.2° 1021.0 hPa 1.2 m/s 40.0 mm 15.2° 1021.0 hPa 1.2 m/s 40.0 mm
08:00 15.4° 1023.1 hPa 0.8 m/s 40.0 mm 15.4° 1023.1 hPa 0.8 m/s 40.0 mm
14:00 15.9° 1023.5 hPa 3.7 m/s 40.0 mm 15.9° 1023.5 hPa 3.7 m/s 40.0 mm
20:00 15.3° 1023.1 hPa 3.0 m/s 40.0 mm 15.3° 1023.1 hPa 3.0 m/s 40.0 mm
 06:04     20:58    Daglengte: 14:54 Zaterdag 27 Aug
02:00 14.5° 1023.6 hPa 2.0 m/s 40.0 mm 14.5° 1023.6 hPa 2.0 m/s 40.0 mm
08:00 14.1° 1022.2 hPa 1.0 m/s 0.4 mm
14:00 15.7° 1022.5 hPa 1.6 m/s 0.6 mm
20:00 14.5° 1023.0 hPa 1.3 m/s 0.3 mm
 06:07     20:55    Daglengte: 14:48 Zondag 28 Aug
02:00 13.3° 1024.0 hPa 0.9 m/s 0.4 mm
08:00 13.8° 1023.9 hPa 0.3 m/s 0.4 mm
14:00 15.9° 1024.0 hPa 1.6 m/s 0.5 mm
20:00 14.3° 1023.6 hPa 0.8 m/s 0.5 mm
 06:10     20:51    Daglengte: 14:41 Maandag 29 Aug
02:00 13.3° 1023.5 hPa 0.8 m/s 0.4 mm
08:00 13.8° 1022.9 hPa 0.9 m/s 0.7 mm
14:00 16.0° 1022.7 hPa 1.7 m/s 0.5 mm
20:00 14.2° 1022.6 hPa 1.0 m/s 0.5 mm
 06:13     20:48    Daglengte: 14:35 Dinsdag 30 Aug
02:00 12.8° 1023.0 hPa 0.5 m/s 0.6 mm
08:00 13.5° 1022.2 hPa 0.3 m/s 0.4 mm
14:00 15.7° 1021.2 hPa 1.6 m/s 0.4 mm
20:00 14.3° 1019.9 hPa 0.7 m/s 0.2 mm
 06:16     20:45    Daglengte: 14:29 Woensdag 31 Aug
02:00 13.4° 1018.8 hPa 0.9 m/s 0.1 mm
08:00 13.8° 1017.3 hPa 1.0 m/s 0.4 mm
14:00 16.0° 1016.4 hPa 1.2 m/s 0.3 mm
20:00 14.3° 1015.8 hPa 1.0 m/s 0.9 mm
 06:18     20:41    Daglengte: 14:23 Donderdag 01 Sep
02:00 13.1° 1015.3 hPa 1.3 m/s 0.6 mm
08:00 13.2° 1014.2 hPa 1.1 m/s 1.4 mm
FMI Hirlam - 7.5 km EWN WRFDA - 12 km DWD ICON - 7 km GFS - 25 km Basiskaart






























































Updatetijd (Europe/Amsterdam) Resolutie Lengte Stap
FMI Hirlam 07:15, 13:15, 19:15, 01:15 7.5 km 49h 1h
EWN WRFDA 10:15, 16:15, 22:15, 04:15 12 km 73h 1h
DWD ICON 11:45, 17:45, 23:45, 05:45 7 km 75h 1h
GFS 08:15, 14:15, 20:15, 02:15 25 km 237h 3h
30+ mm
25-30 mm
20-25 mm
15-20 mm
10-15 mm
6-10 mm
4-6 mm
2-4 mm
1-2 mm
0.5-1 mm
0.2-0.5 mm
0.1-0.2 mm
30+ mm
25-30 mm
20-25 mm
15-20 mm
10-15 mm
6-10 mm
4-6 mm
2-4 mm
1-2 mm
0.5-1 mm
0.2-0.5 mm
0.1-0.2 mm
Sneeuwval
Natte sneeuw
Hagel
Vorst
30+ mm
25-30 mm
20-25 mm
15-20 mm
10-15 mm
6-10 mm
4-6 mm
2-4 mm
1-2 mm
0.5-1 mm
0.2-0.5 mm
0.1-0.2 mm
Sneeuwval
Natte sneeuw
Hagel
Vorst
Onweer
50 mm
40 mm
30 mm
26 mm
22 mm
18 mm
14 mm
10 mm
9 mm
8 mm
7 mm
6 mm
5 mm
4.5 mm
4 mm
3.5 mm
3 mm
2.5 mm
2 mm
1.5 mm
1 mm
0.8 mm
0.6 mm
0.4 mm
0.2 mm
0.05 mm
35°
30°
25°
20°
15°
10°
-5°
-10°
-15°
-20°
-25°
-30°
-35°
33> m/s
29 m/s
25 m/s
21 m/s
17 m/s
14 m/s
11 m/s
8 m/s
5 m/s
3 m/s
0 m/s
2600 J/kg
2400 J/kg
2200 J/kg
2000 J/kg
1800 J/kg
1600 J/kg
1400 J/kg
1200 J/kg
1000 J/kg
800 J/kg
600 J/kg
400 J/kg
200 J/kg
70 dBZ
65 dBZ
60 dBZ
55 dBZ
50 dBZ
45 dBZ
40 dBZ
35 dBZ
30 dBZ
25 dBZ
20 dBZ
15 dBZ
10 dBZ
5 dBZ
-1 K
-2 K
-3 K
-4 K
-5 K
-6 K
-7 K
-8 K
-9 K
<
950 m²/s²
900 m²/s²
850 m²/s²
800 m²/s²